Home   Weather   Kemerovo   Past weeks

Flag for Russia Past Weather in Kemerovo, Russia — Yesterday and Last 2 Weeks

28 °F

More clouds than sun.

Feels Like: 25 °F
Forecast: 12 / 24 °F
Wind: 3 mph from Southeast

Location: Kemerovo

Current Time: Oct 22, 2016 at 12:29:43 PM

Latest Report: Oct 22, 2016 at 12:00 PM

Visibility: N/A

Pressure: 30.42 "Hg

Humidity: 93%

Dew Point: 27 °F

Location of KemerovoLocation

Past Weather in Kemerovo — Graph


Kemerovo Temperature Yesterday

Maximum temperature yesterday: 30 °F (at 12:30 PM)
Minimum temperature yesterday: 23 °F (at 3:00 AM)
Average temperature yesterday: 26 °F

High & Low Weather Summary for the Past Weeks

High41 °F (Oct 7, 1:30 PM)100% (Oct 7, 8:30 PM)30.42 "Hg (Oct 7, 8:30 PM)
Low18 °F (Oct 19, 2:00 AM)51% (Oct 13, 2:30 PM)29.74 "Hg (Oct 14, 12:00 AM)
Average29 °F87%30.11 "Hg
* Reported Oct 7 11:00 AM — Oct 22 11:00 AM, Kemerovo, Weather by CustomWeather, © 2016

Note: Actual official high and low records may vary slightly from our data, if they occured in-between our weather recording intervals... More about our weather records


Kemerovo Weather History for the Previous 24 Hours

Scroll right to see more
Time TempWeatherWind HumidityBarometerVisibility
11:00 AM
Sat, Oct 22
28 °FSnow flurries. More clouds than sun.3 mph93%30.42 "Hg5 mi
10:30 AM27 °FLight snow. Ice fog.1 mph100%30.42 "Hg1 mi
10:00 AM27 °FLight snow. Ice fog.3 mph93%30.39 "Hg1 mi
9:30 AM27 °FChilly.1 mph93%30.39 "Hg1 mi
9:00 AM27 °FChilly.1 mph93%30.39 "Hg1 mi
8:30 AM27 °FChilly.1 mph93%30.39 "Hg1 mi
8:00 AM27 °FSnow flurries. Ice fog.No wind93%30.39 "Hg1 mi
7:00 AM25 °FSnow flurries. Ice fog.1 mph100%30.39 "Hg1 mi
6:30 AM27 °FChilly.No wind93%30.39 "Hg1 mi
6:00 AM25 °FSnow flurries. Ice fog.No wind100%30.36 "Hg1 mi
5:30 AM25 °FCold.1 mph100%30.36 "Hg2 mi
5:00 AM25 °FCold.1 mph100%30.36 "Hg1 mi
4:30 AM25 °FSnow flurries. Ice fog.1 mph100%30.36 "Hg1 mi
4:00 AM25 °FCold.1 mph100%30.36 "Hg1 mi
3:30 AM25 °FCold.1 mph100%30.36 "Hg1 mi
3:00 AM27 °FChilly.1 mph93%30.36 "Hg1 mi
2:30 AM27 °FChilly.No wind93%30.36 "Hg0 mi
2:00 AM27 °FChilly.No wind93%30.36 "Hg0 mi
1:30 AM25 °FIce fog.3 mph93%30.36 "Hg0 mi
1:00 AM25 °FCold.1 mph100%30.36 "Hg0 mi
12:30 AM27 °FChilly.No wind93%30.33 "Hg0 mi
12:00 AM27 °FChilly.1 mph100%30.36 "Hg1 mi
11:30 PM
Fri, Oct 21
27 °FIce fog.No wind100%30.36 "Hg1 mi
11:00 PM27 °FIce fog.1 mph100%30.36 "Hg1 mi
10:30 PM25 °FCold.1 mph100%30.33 "Hg1 mi
10:00 PM25 °FCold.1 mph100%30.33 "Hg0 mi
9:30 PM27 °FSnow flurries. Ice fog.1 mph93%30.33 "Hg2 mi
9:00 PM27 °FSnow flurries. Mostly cloudy.1 mph100%30.33 "Hg6 mi
8:30 PM28 °FSnow flurries. Overcast.1 mph93%30.33 "Hg6 mi
8:00 PM28 °FSnow flurries. Overcast.No wind93%30.33 "Hg2 mi
7:30 PM28 °FSnow flurries. Overcast.1 mph93%30.33 "Hg2 mi
7:00 PM28 °FSnow flurries. Overcast.3 mph93%30.33 "Hg1 mi
6:30 PM28 °FSnow flurries. Overcast.3 mph93%30.33 "Hg4 mi
6:00 PM28 °FSnow flurries. Overcast.1 mph93%30.33 "Hg4 mi
5:30 PM28 °FSnow flurries. More clouds than sun.1 mph93%30.30 "Hg4 mi
5:00 PM30 °FSnow flurries. More clouds than sun.1 mph93%30.30 "Hg2 mi
4:30 PM30 °FSnow flurries. Overcast.1 mph86%30.30 "Hg3 mi
4:00 PM30 °FSnow flurries. Overcast.3 mph86%30.30 "Hg2 mi
3:30 PM30 °FSnow flurries. Overcast.3 mph86%30.30 "Hg6 mi
3:00 PM30 °FOvercast.1 mph80%30.30 "HgN/A
2:00 PM30 °FOvercast.6 mph86%30.27 "HgN/A
1:30 PM30 °FMore clouds than sun.3 mph86%30.27 "HgN/A
1:00 PM30 °FLow clouds.3 mph86%30.27 "HgN/A
12:30 PM30 °FLow clouds.3 mph86%30.27 "HgN/A
12:00 PM28 °FLow clouds.3 mph93%30.27 "HgN/A
Weather by CustomWeather, © 2016

See weather overviewHow to use our weather pages